LiveATC.Net - Listen to live air traffic control over the Internet!


ICAO: KDCU  IATA: DCU   Airport: Pryor Field Regional Airport
City: Decatur   State/Province: Alabama
Country: United States   Continent: North America
KDCU METAR Weather: KDCU 242253Z AUTO 35005KT 10SM CLR 29/23 A2998 RMK AO2 SLP146 T02890233
KDCU Flight Activity (FlightAware)
KDCU Airport Info   (iFlightPlanner)
KDCU VFR Sectional Chart   (iFlightPlanner) 
KDCU IFR Low Chart   (iFlightPlanner) 

KDCU CTAF
Feed Status: UP   Listeners: 0
Listen in your browser - HTML5 player (in browser, HTML5)
Click here to listen with your own player (launches your MP3 player)
KDCU CTAF Audio Archives
FacilityFrequency
Decatur CTAF123.075

NOTICE

Unauthorized use prohibited. See LiveATC.net Terms of Service


Airport/ARTCC Code
Frequency Search
(e.g., 124.400, 128.75)
Site-wide search
 


Browse LiveATC Feeds
Top 50 LiveATC Feeds
LiveATC Feed Map
Bad Weather Areas

LiveATC FAQ
Offer LiveATC feed
Contact LiveATC.net
Press Inquiries

LiveATC on iPhone
LiveATC on Android

Windows Phone
Windows 8/10

LiveATC Mobile
(Mobile browser)

ATC Audio Archives
Interesting Recordings

LiveATC Forums


Home Page
About LiveATC.net
Make a Donation
Terms of Use
Privacy Policy

Canadian Air Freqs

AIRMETs/SIGMETs

FAA Airport Status
Nat'l Airspace Status
Arrival Demand Charts


Server Software By:
Icecast.org
Liquidsoap